Location: Prostejov
(49.4670°N, 17.1170°E)
Time: 11:01:47
(UTC+02:00)

ISS - Pass Details

Date: 22 May 2021
Orbit: 417 x 422 km, 51.6° (Epoch: 13 June)

Event Time Altitude Azimuth Distance (km) Brightness Sun altitude
Rises 22:57:53 0° 285° (WNW) 2,367 0.7 -15.8°
Reaches altitude 10° 22:59:59 10° 288° (WNW) 1,503 -0.3 -16.0°
Maximum altitude 23:03:22 71° 13° (NNE) 448 -3.6 -16.2°
Enters shadow 23:05:24 22° 94° (E) 977 -2.2 -16.3°
